{"data":{"norad_id":67826,"epoch":"2026-09-19T16:29:02.626080Z","epoch_age_seconds":136737,"freshness":"FRESH","line1":"1 67826U 26033F   26262.68683595  .00009865  00000+0  36739-3 0  9999","line2":"2 67826  43.0040 251.4356 0001697 272.0078  88.0579 15.27593207 34349","mean_motion":15.27593207,"eccentricity":0.0001697,"inclination_deg":43.004,"raan_deg":251.4356,"arg_perigee_deg":272.0078,"mean_anomaly_deg":88.0579,"bstar":0.00036739,"rev_number":3434,"period_min":94.26593371857,"perigee_km":481.84521324588,"apogee_km":484.17388638488,"semimajor_km":6861.1465498154,"source":"CELESTRAK","updated_at":"2026-09-20T09:00:43.667941Z"}}